Overview Statistics Trail Chart Weather Telemetry Raw packets
 

This is the latest recevied weather packets stored in our database for station/object KG5CK-1. If no packets are shown the sender has not sent any weather packets the latest 10 day(s).

<< 498 499 500 501 502 503 504 >>
Time Temp. Humidity Pressure Rain* Wind** Luminosity Snow
1787982723 30° C 56% 1012.7 hPa 0 mm 1.79 m/s, 99° - -
1787982663 30° C 56% 1012.7 hPa 0 mm 1.79 m/s, 99° - -
1787982603 30° C 56% 1012.4 hPa 0 mm 0.89 m/s, 81° - -
1787982543 30° C 56% 1012.4 hPa 0 mm 0.89 m/s, 81° - -
1787982483 30° C 56% 1012.4 hPa 0 mm 0.89 m/s, 81° - -
1787982422 30° C 56% 1012.4 hPa 0 mm 0.89 m/s, 81° - -
1787982362 30° C 56% 1012.4 hPa 0 mm 0.89 m/s, 81° - -
1787982303 30° C 56% 1012.3 hPa 0 mm 0.89 m/s, 119° - -
1787982243 30° C 56% 1012.3 hPa 0 mm 0.89 m/s, 119° - -
1787982183 30° C 56% 1012.3 hPa 0 mm 0.89 m/s, 119° - -
1787982123 30° C 56% 1012.3 hPa 0 mm 0.89 m/s, 119° - -
1787982062 30° C 56% 1012.3 hPa 0 mm 0.89 m/s, 119° - -
1787982003 30° C 56% 1012.2 hPa 0 mm 0.89 m/s, 129° - -
1787981942 30° C 56% 1012.2 hPa 0 mm 0.89 m/s, 129° - -
1787981882 30° C 56% 1012.2 hPa 0 mm 0.89 m/s, 129° - -
1787981823 30° C 56% 1012.2 hPa 0 mm 0.89 m/s, 129° - -
1787981762 30° C 56% 1012.2 hPa 0 mm 0.89 m/s, 129° - -
1787981703 30.56° C 56% 1012.3 hPa 0 mm 1.34 m/s, 110° - -
1787981643 30.56° C 56% 1012.3 hPa 0 mm 1.34 m/s, 110° - -
1787981583 30.56° C 56% 1012.3 hPa 0 mm 1.34 m/s, 110° - -
1787981522 30.56° C 56% 1012.3 hPa 0 mm 1.34 m/s, 110° - -
1787981462 30.56° C 56% 1012.3 hPa 0 mm 1.34 m/s, 110° - -
1787981402 30° C 56% 1012.4 hPa 0 mm 0.89 m/s, 97° - -
1787981342 30° C 56% 1012.4 hPa 0 mm 0.89 m/s, 97° - -
1787981282 30° C 56% 1012.4 hPa 0 mm 0.89 m/s, 97° - -

* Rain latest hour (hover to see other rain measurements)
** Current wind speed in m/s (hover to see current wind gust speed)